DW6860 Weather Reports


Display with metric or nautical units.
time (UTC)temp
F
wind
direction
speed
MPH
gust
MPH
rain 1hr
in
rain 24hr
in
rain mn
in
humidity
%
barometer
mb
20260903090840 66 210 4.0 12.0 0.00 0.04 0.04 92 1016.0
20260903090031 66 229 5.0 12.0 0.00 0.04 0.04 92 1015.9
20260903085517 66 196 6.0 12.0 0.00 0.04 0.04 92 1015.9
20260903085021 66 215 6.0 12.0 0.00 0.04 0.04 92 1015.8
20260903084523 66 208 6.0 13.0 0.00 0.04 0.04 92 1015.7
20260903084030 66 224 6.0 13.0 0.00 0.04 0.04 92 1015.7
20260903083526 66 236 6.0 14.0 0.00 0.04 0.04 92 1015.6
20260903083023 66 205 6.0 14.0 0.00 0.04 0.04 92 1015.6
20260903082518 66 188 5.0 13.0 0.00 0.04 0.04 92 1015.7
20260903082020 66 204 5.0 11.0 0.00 0.04 0.04 92 1015.7
20260903081516 66 217 6.0 13.0 0.00 0.04 0.04 92 1015.7
20260903081017 66 221 6.0 13.0 0.00 0.04 0.04 91 1015.6
20260903080546 65 240 6.0 14.0 0.01 0.04 0.04 91 1015.6
20260903080526 65 254 5.0 12.0 0.00 0.04 0.04 91 1015.6
20260903075516 65 219 5.0 16.0 0.01 0.03 0.04 91 1015.8
20260903075017 65 173 4.0 16.0 0.01 0.03 0.04 91 1015.8
20260903074514 65 205 4.0 9.0 0.01 0.03 0.04 90 1015.9
20260903074019 65 195 4.0 9.0 0.01 0.03 0.04 90 1015.9
20260903073508 65 225 5.0 10.0 0.01 0.03 0.04 90 1016.0
20260903073017 65 180 5.0 10.0 0.01 0.03 0.04 90 1016.1
20260903072520 65 180 4.0 10.0 0.04 0.03 0.04 89 1016.0
20260903072006 65 200 3.0 9.0 0.04 0.03 0.04 89 1016.1
20260903071502 65 242 4.0 10.0 0.04 0.03 0.04 89 1016.0
20260903070959 65 257 5.0 10.0 0.04 0.03 0.04 88 1015.9
20260903070835 65 216 5.0 10.0 0.04 0.03 0.04 88 1015.9
20260903070346 66 206 4.0 9.0 0.03 0.00 0.03 87 1015.9
20260903065457 66 180 4.0 9.0 0.03 0.00 0.03 87 1015.9
20260903064958 66 198 4.0 10.0 0.03 0.00 0.03 86 1015.8
20260903064833 66 233 5.0 12.0 0.03 0.00 0.03 85 1015.9
20260903063958 66 196 4.0 12.0 0.03 0.00 0.03 85 1015.8
20260903063454 67 220 5.0 11.0 0.03 0.00 0.03 84 1015.7
20260903062953 67 265 5.0 11.0 0.02 0.00 0.02 83 1015.7
20260903062452 67 214 5.0 12.0 0.00 0.00 0.00 82 1015.7
20260903061952 67 223 5.0 12.0 0.00 0.00 0.00 82 1015.6
20260903061455 67 204 5.0 11.0 0.00 0.00 0.00 81 1015.5
20260903060953 67 226 4.0 11.0 0.00 0.00 0.00 81 1015.5
20260903060452 66 217 3.0 9.0 0.00 0.00 0.00 81 1015.5
20260903055950 66 188 4.0 10.0 0.00 0.00 0.00 81 1015.4
20260903055446 66 196 5.0 11.0 0.00 0.00 0.00 81 1015.5
20260903055358 66 239 5.0 10.0 0.00 0.00 0.00 80 1015.5
20260903055354 66 211 4.0 12.0 0.00 0.00 0.00 80 1015.4
20260903055345 66 238 4.0 12.0 0.00 0.00 0.00 80 1015.5
20260903054112 66 228 4.0 10.0 0.00 0.00 0.00 80 1015.6
20260903052937 66 201 5.0 12.0 0.00 0.00 0.00 80 1015.5
20260903052437 66 204 4.0 12.0 0.00 0.00 0.00 80 1015.6
20260903051935 66 228 4.0 9.0 0.00 0.00 0.00 80 1015.5
20260903051435 66 213 5.0 11.0 0.00 0.00 0.00 80 1015.4
20260903050937 66 196 5.0 11.0 0.00 0.00 0.00 80 1015.6
20260903050439 66 197 4.0 10.0 0.00 0.00 0.00 80 1015.5
20260903045933 66 211 5.0 10.0 0.00 0.00 0.00 79 1015.3
20260903045432 66 217 4.0 10.0 0.00 0.00 0.00 79 1015.5
20260903044934 66 186 4.0 8.0 0.00 0.00 0.00 79 1015.6
20260903044431 66 218 5.0 12.0 0.00 0.00 0.00 79 1015.4
20260903043933 66 230 5.0 12.0 0.00 0.00 0.00 78 1015.4
20260903043433 66 175 5.0 11.0 0.00 0.00 0.00 78 1015.4
20260903043035 65 261 4.0 9.0 0.00 0.00 0.00 77 1015.7
20260903043029 65 180 5.0 9.0 0.00 0.00 0.00 77 1015.7
20260903043024 65 212 5.0 9.0 0.00 0.00 0.00 77 1015.7
20260903042952 66 195 5.0 10.0 0.00 0.00 0.00 78 1015.3
20260903042743 66 227 4.0 9.0 0.00 0.00 0.00 77 1015.3
20260903042554 65 182 4.0 9.0 0.00 0.00 0.00 77 1015.3
20260903042359 65 211 4.0 8.0 0.00 0.00 0.00 77 1015.6
20260903041134 65 180 5.0 9.0 0.00 0.00 0.00 77 1015.7
20260903035630 65 229 5.0 9.0 0.00 0.00 0.00 76 1015.9
20260903034934 65 178 4.0 10.0 0.00 0.00 0.00 76 1016.0
20260903034752 65 221 5.0 11.0 0.00 0.00 0.00 76 1016.0
20260903033934 65 198 4.0 11.0 0.00 0.00 0.00 76 1015.9
20260903033434 65 215 4.0 13.0 0.00 0.00 0.00 76 1015.9
20260903032933 65 176 4.0 13.0 0.00 0.00 0.00 77 1015.8
20260903032747 65 233 4.0 11.0 0.00 0.00 0.00 77 1015.8
20260903031930 65 239 4.0 11.0 0.00 0.00 0.00 77 1015.7
20260903031430 65 216 4.0 9.0 0.00 0.00 0.00 77 1015.7
20260903030930 65 173 4.0 11.0 0.00 0.00 0.00 77 1015.6
20260903030430 65 174 5.0 11.0 0.00 0.00 0.00 77 1015.8
20260903025933 65 184 4.0 10.0 0.00 0.00 0.00 77 1015.9
20260903025433 65 196 5.0 14.0 0.00 0.00 0.00 77 1016.0
20260903024933 65 184 5.0 14.0 0.00 0.00 0.00 77 1016.0
20260903024428 65 221 5.0 12.0 0.00 0.00 0.00 77 1016.0
20260903023931 65 192 5.0 12.0 0.00 0.00 0.00 77 1016.1
20260903023427 65 218 5.0 10.0 0.00 0.00 0.00 78 1016.3
20260903022927 65 209 5.0 10.0 0.00 0.00 0.00 78 1016.3
20260903022428 65 225 5.0 10.0 0.00 0.00 0.00 79 1016.4
20260903021926 65 204 4.0 8.0 0.00 0.00 0.00 79 1016.3
20260903021427 65 190 4.0 9.0 0.00 0.00 0.00 79 1016.3
20260903020924 65 231 5.0 11.0 0.00 0.00 0.00 79 1016.4
20260903020434 65 191 6.0 12.0 0.00 0.00 0.00 80 1016.3
20260903015926 65 229 6.0 16.0 0.00 0.00 0.00 80 1016.4
20260903015421 65 236 6.0 16.0 0.00 0.00 0.00 80 1016.4
20260903014916 64 217 4.0 13.0 0.00 0.00 0.00 81 1016.5
20260903014419 64 157 5.0 12.0 0.00 0.00 0.00 81 1016.6
20260903013915 64 224 5.0 12.0 0.00 0.00 0.00 81 1016.6
20260903013416 64 218 4.0 9.0 0.00 0.00 0.00 81 1016.5
20260903013233 64 198 3.0 9.0 0.00 0.00 0.00 81 1016.6
20260903012433 64 175 4.0 11.0 0.00 0.00 0.00 80 1016.8
20260903012422 64 181 3.0 6.0 0.00 0.00 0.00 80 1016.6
20260903012026 64 222 4.0 11.0 0.00 0.00 0.00 80 1016.7
20260903010916 65 167 4.0 9.0 0.00 0.00 0.00 80 1016.8
20260903010418 65 186 4.0 7.0 0.00 0.00 0.00 79 1016.9
20260903005916 65 233 3.0 7.0 0.00 0.00 0.00 78 1017.0
20260903005414 65 209 4.0 9.0 0.00 0.00 0.00 77 1017.1
20260903004912 65 257 5.0 12.0 0.00 0.00 0.00 76 1017.1
20260903004414 65 222 6.0 12.0 0.00 0.00 0.00 75 1017.2
20260903003913 65 221 5.0 10.0 0.00 0.00 0.00 74 1017.4
20260903003413 65 213 5.0 10.0 0.00 0.00 0.00 73 1017.4
20260903002912 65 204 4.0 10.0 0.00 0.00 0.00 72 1017.1
20260903002739 65 203 4.0 11.0 0.00 0.00 0.00 72 1017.1
20260903001900 65 206 5.0 12.0 0.00 0.00 0.00 72 1017.1
20260903001405 65 231 5.0 12.0 0.00 0.00 0.00 73 1017.2
20260903000916 65 200 4.0 10.0 0.00 0.00 0.00 73 1017.3
20260903000402 65 162 3.0 10.0 0.00 0.00 0.00 73 1017.4
20260903000126 65 206 4.0 8.0 0.00 0.00 0.00 73 1017.4
20260903000020 65 218 3.0 8.0 0.00 0.00 0.00 73 1017.4
20260902234854 65 183 4.0 8.0 0.00 0.00 0.00 73 1017.2
20260902234723 65 198 4.0 8.0 0.00 0.00 0.00 73 1017.4
20260902233851 66 178 3.0 8.0 0.00 0.00 0.00 73 1017.5
20260902233346 66 200 2.0 6.0 0.00 0.00 0.00 73 1017.6
20260902232859 66 188 3.0 9.0 0.00 0.00 0.00 73 1017.7
20260902232348 65 180 3.0 9.0 0.00 0.00 0.00 73 1017.7
20260902231846 65 246 3.0 8.0 0.00 0.00 0.00 73 1017.7
20260902231347 65 182 3.0 6.0 0.00 0.00 0.00 74 1017.7
20260902230846 65 198 3.0 6.0 0.00 0.00 0.00 74 1017.9
20260902230355 65 206 3.0 6.0 0.00 0.00 0.00 74 1018.0
20260902225842 65 217 3.0 6.0 0.00 0.00 0.00 74 1018.0
20260902225344 65 234 3.0 8.0 0.00 0.00 0.00 74 1018.2
20260902224843 65 188 3.0 8.0 0.00 0.00 0.00 74 1018.3
20260902224340 65 175 3.0 9.0 0.00 0.00 0.00 74 1018.2
20260902223839 65 197 4.0 9.0 0.00 0.00 0.00 74 1018.3
20260902223339 65 177 4.0 9.0 0.00 0.00 0.00 74 1018.5
20260902222836 65 219 4.0 9.0 0.00 0.00 0.00 74 1018.4
20260902222337 65 228 4.0 9.0 0.00 0.00 0.00 75 1018.4
20260902221837 65 249 3.0 7.0 0.00 0.00 0.00 75 1018.4
20260902221336 65 219 3.0 7.0 0.00 0.00 0.00 76 1018.6
20260902220834 65 189 3.0 7.0 0.00 0.00 0.00 76 1018.5
20260902220337 65 178 3.0 8.0 0.00 0.00 0.00 76 1018.5
20260902220214 65 188 2.0 8.0 0.00 0.00 0.00 77 1018.5
20260902215334 65 217 3.0 9.0 0.00 0.00 0.00 77 1018.6
20260902214833 65 186 3.0 10.0 0.00 0.00 0.00 78 1018.4
20260902214333 65 216 3.0 10.0 0.00 0.00 0.00 78 1018.4
20260902213833 65 186 2.0 5.0 0.00 0.00 0.00 78 1018.4
20260902213330 65 186 2.0 5.0 0.00 0.00 0.00 78 1018.4
20260902212828 65 182 2.0 5.0 0.00 0.00 0.00 78 1018.3
20260902212324 65 209 2.0 6.0 0.00 0.00 0.00 78 1018.3
20260902211817 65 176 2.0 7.0 0.00 0.00 0.00 78 1018.3
20260902211318 65 194 2.0 7.0 0.00 0.00 0.00 79 1018.4
20260902210814 65 199 2.0 9.0 0.00 0.00 0.00 79 1018.6
20260902210647 65 184 2.0 9.0 0.00 0.00 0.00 79 1018.6
20260902205815 65 184 2.0 5.0 0.00 0.00 0.00 79 1018.6
20260902205313 65 169 2.0 6.0 0.00 0.00 0.00 79 1018.5
20260902204810 65 185 2.0 6.0 0.00 0.00 0.00 79 1018.6
20260902204307 65 161 2.0 5.0 0.00 0.00 0.00 79 1018.6
20260902203810 65 188 2.0 4.0 0.00 0.00 0.00 79 1018.6
20260902203314 65 176 1.0 4.0 0.00 0.00 0.00 79 1018.6
20260902202807 65 200 1.0 3.0 0.00 0.00 0.00 79 1018.7
20260902202306 65 200 1.0 3.0 0.00 0.00 0.00 79 1018.8
20260902202155 65 200 1.0 3.0 0.00 0.00 0.00 79 1018.7
20260902201527 65 200 1.0 3.0 0.00 0.00 0.00 79 1018.8
20260902201427 65 200 1.0 3.0 0.00 0.00 0.00 79 1018.7
20260902200311 65 200 1.0 3.0 0.00 0.00 0.00 78 1018.7
20260902195819 65 200 1.0 3.0 0.00 0.00 0.00 78 1018.8
20260902195309 65 200 0.0 2.0 0.00 0.00 0.00 78 1018.8
20260902194840 69 250 3.0 5.0 0.00 0.00 0.00 71 1019.0
20260902194836 69 226 3.0 5.0 0.00 0.00 0.00 71 1019.0
20260902194829 66 200 1.0 3.0 0.00 0.00 0.00 78 1019.0
20260902194825 66 200 1.0 3.0 0.00 0.00 0.00 78 1019.0
20260902194821 67 210 0.0 3.0 0.00 0.00 0.00 77 1019.0
20260902194810 65 200 1.0 3.0 0.00 0.00 0.00 78 1018.8
20260902194754 67 210 2.0 4.0 0.00 0.00 0.00 76 1019.2
20260902194750 69 192 1.0 4.0 0.00 0.00 0.00 73 1019.1
20260902194746 69 192 2.0 4.0 0.00 0.00 0.00 73 1019.0
20260902194739 69 192 1.0 3.0 0.00 0.00 0.00 72 1019.1
20260902194734 69 192 2.0 4.0 0.00 0.00 0.00 72 1019.0
20260902193944 69 261 3.0 5.0 0.00 0.00 0.00 71 1019.0
20260902193939 69 190 3.0 5.0 0.00 0.00 0.00 71 1019.0
20260902193903 66 200 1.0 3.0 0.00 0.00 0.00 78 1018.9
20260902193032 66 200 1.0 4.0 0.00 0.00 0.00 77 1019.1
20260902192845 66 176 1.0 4.0 0.00 0.00 0.00 77 1019.0
20260902192641 66 176 1.0 4.0 0.00 0.00 0.00 77 1019.0
20260902192447 66 210 1.0 3.0 0.00 0.00 0.00 77 1019.0
20260902191839 67 210 0.0 3.0 0.00 0.00 0.00 76 1018.9
20260902191645 67 210 0.0 2.0 0.00 0.00 0.00 76 1019.0
20260902191455 67 210 0.0 2.0 0.00 0.00 0.00 76 1019.0
20260902191304 67 210 1.0 2.0 0.00 0.00 0.00 76 1019.0
20260902191118 67 210 1.0 4.0 0.00 0.00 0.00 76 1019.1
20260902190937 67 210 1.0 4.0 0.00 0.00 0.00 76 1019.1
20260902190348 68 177 2.0 6.0 0.00 0.00 0.00 75 1019.1
20260902190149 68 191 2.0 6.0 0.00 0.00 0.00 75 1019.1
20260902185948 68 211 1.0 3.0 0.00 0.00 0.00 75 1019.1
20260902185753 68 202 2.0 6.0 0.00 0.00 0.00 75 1019.1
20260902185604 68 196 3.0 9.0 0.00 0.00 0.00 74 1019.1
20260902185415 69 187 1.0 9.0 0.00 0.00 0.00 74 1019.2
20260902185217 69 192 1.0 3.0 0.00 0.00 0.00 73 1019.1
20260902184626 69 192 1.0 4.0 0.00 0.00 0.00 73 1018.9
20260902184040 69 192 2.0 4.0 0.00 0.00 0.00 72 1019.0
20260902183449 69 192 2.0 4.0 0.00 0.00 0.00 72 1019.0
20260902182354 69 192 2.0 3.0 0.00 0.00 0.00 71 1018.9
20260902181351 69 268 2.0 4.0 0.00 0.00 0.00 71 1018.9
20260902181326 0 0.0 4.0 0.00 0.00 0.00
20260902180708 69 250 3.0 5.0 0.00 0.00 0.00 71 1019.0
20260902165947 69 195 3.0 5.0 0.00 0.00 0.00 71 1019.1
20260902164052 69 267 3.0 7.0 0.00 0.00 0.00 72 1019.1
20260902163551 69 200 3.0 7.0 0.00 0.00 0.00 72 1019.0
20260902163424 69 233 2.0 7.0 0.00 0.00 0.00 72 1019.1
20260902162537 69 227 3.0 7.0 0.00 0.00 0.00 71 1019.2
20260902162359 70 208 3.0 7.0 0.00 0.00 0.00 71 1019.3
20260902161536 70 207 3.0 6.0 0.00 0.00 0.00 71 1019.4
20260902161037 70 178 3.0 7.0 0.00 0.00 0.00 72 1019.4
20260902160919 69 194 2.0 7.0 0.00 0.00 0.00 72 1019.5
20260902160034 69 271 2.0 8.0 0.00 0.00 0.00 73 1019.4
20260902155532 69 218 3.0 8.0 0.00 0.00 0.00 73 1019.5
20260902155343 69 234 3.0 8.0 0.00 0.00 0.00 73 1019.4
20260902154529 69 239 3.0 7.0 0.00 0.00 0.00 73 1019.4
20260902154453 69 227 2.0 5.0 0.00 0.00 0.00 74 1019.5
20260902154446 69 216 3.0 7.0 0.00 0.00 0.00 73 1019.5
20260902153643 69 247 2.0 7.0 0.00 0.00 0.00 74 1019.5
20260902152529 69 236 2.0 6.0 0.00 0.00 0.00 75 1019.6
20260902152032 69 224 1.0 6.0 0.00 0.00 0.00 74 1019.6
20260902151528 69 229 1.0 4.0 0.00 0.00 0.00 75 1019.7
20260902151032 69 221 1.0 5.0 0.00 0.00 0.00 74 1019.6
20260902150527 69 242 2.0 5.0 0.00 0.00 0.00 74 1019.6
20260902150435 69 282 2.0 5.0 0.00 0.00 0.00 73 1019.7
20260902145527 69 220 2.0 7.0 0.00 0.00 0.00 73 1019.8
20260902145426 69 277 3.0 7.0 0.00 0.00 0.00 72 1019.8
20260902144917 69 243 3.0 7.0 0.00 0.00 0.00 72 1019.8
20260902144033 70 205 3.0 9.0 0.00 0.00 0.00 71 1019.7
20260902143522 70 292 4.0 9.0 0.00 0.00 0.00 69 1019.7
20260902143025 70 252 4.0 9.0 0.00 0.00 0.00 68 1019.7
20260902142524 70 180 4.0 9.0 0.00 0.00 0.00 67 1019.6
20260902142023 70 227 4.0 9.0 0.00 0.00 0.00 66 1019.6
20260902141520 70 250 4.0 8.0 0.00 0.00 0.00 66 1019.6
20260902141026 70 205 5.0 9.0 0.00 0.00 0.00 66 1019.7
20260902140524 71 186 5.0 10.0 0.00 0.00 0.00 65 1019.7
20260902140033 71 197 6.0 13.0 0.00 0.00 0.00 65 1019.7
20260902135517 71 189 5.0 13.0 0.00 0.00 0.00 64 1019.7
20260902135021 71 198 4.0 10.0 0.00 0.00 0.00 64 1019.6
20260902134521 71 191 4.0 10.0 0.00 0.00 0.00 64 1019.6
20260902134019 71 269 4.0 10.0 0.00 0.00 0.00 65 1019.7
20260902133521 71 228 4.0 9.0 0.00 0.00 0.00 65 1019.6
20260902133018 71 293 4.0 8.0 0.00 0.00 0.00 66 1019.6
20260902132517 71 234 4.0 11.0 0.00 0.00 0.00 66 1019.5
20260902132344 71 200 4.0 11.0 0.00 0.00 0.00 66 1019.6
20260902131520 71 211 3.0 8.0 0.00 0.00 0.00 65 1019.5
20260902131020 71 210 3.0 7.0 0.00 0.00 0.00 65 1019.5
20260902130519 72 186 4.0 8.0 0.00 0.00 0.00 64 1019.5
20260902130357 72 228 5.0 9.0 0.00 0.00 0.00 64 1019.5
20260902125518 72 178 4.0 9.0 0.00 0.00 0.00 63 1019.5
20260902125024 73 242 3.0 8.0 0.00 0.00 0.00 64 1019.5
20260902124520 73 202 4.0 9.0 0.00 0.00 0.00 65 1019.5
20260902124018 72 228 4.0 10.0 0.00 0.00 0.00 66 1019.5
20260902123848 71 245 3.0 10.0 0.00 0.00 0.00 66 1019.5
20260902123342 71 329 2.0 7.0 0.00 0.00 0.00 66 1019.5
20260902122512 71 313 3.0 9.0 0.00 0.00 0.00 67 1019.5
20260902122350 71 175 3.0 9.0 0.00 0.00 0.00 68 1019.6
20260902121502 71 346 2.0 9.0 0.00 0.00 0.00 68 1019.6
20260902121001 71 210 2.0 6.0 0.00 0.00 0.00 69 1019.6
20260902120502 70 192 3.0 8.0 0.00 0.00 0.00 69 1019.7
20260902120002 70 209 3.0 9.0 0.00 0.00 0.00 69 1019.7
20260902115501 70 223 3.0 9.0 0.00 0.00 0.00 70 1019.8
20260902115343 70 222 4.0 10.0 0.00 0.00 0.00 70 1019.7
20260902114501 70 234 5.0 10.0 0.00 0.00 0.00 70 1019.8
20260902114003 70 187 4.0 8.0 0.00 0.00 0.00 71 1019.9
20260902113851 70 211 4.0 9.0 0.00 0.00 0.00 70 1019.9
20260902113003 70 238 3.0 9.0 0.00 0.00 0.00 71 1019.9
20260902112843 70 200 3.0 10.0 0.00 0.00 0.00 71 1020.0
20260902112217 70 248 3.0 7.0 0.00 0.00 0.00 71 1020.0
20260902112122 70 236 4.0 10.0 0.00 0.00 0.00 71 1020.0
20260902111347 70 186 4.0 9.0 0.00 0.00 0.00 71 1019.9
20260902110832 70 283 4.0 9.0 0.00 0.00 0.00 71 1019.9
20260902110000 70 200 4.0 8.0 0.00 0.00 0.00 73 1019.9
20260902105459 70 208 4.0 8.0 0.00 0.00 0.00 72 1019.9
20260902105001 70 197 3.0 8.0 0.00 0.00 0.00 72 1019.9
20260902104458 70 279 4.0 9.0 0.00 0.00 0.00 73 1019.9
20260902104335 70 212 4.0 9.0 0.00 0.00 0.00 73 1019.9
20260902103459 70 200 4.0 8.0 0.00 0.00 0.00 74 1020.0
20260902103000 70 176 4.0 8.0 0.00 0.00 0.00 75 1020.0
20260902102457 69 240 4.0 8.0 0.00 0.00 0.00 77 1020.0
20260902101954 69 187 4.0 8.0 0.00 0.00 0.00 77 1020.1
20260902101453 69 207 4.0 8.0 0.00 0.00 0.00 78 1020.1
20260902101326 67 192 4.0 7.0 0.00 0.00 0.00 79 1020.1
20260902100841 68 215 4.0 9.0 0.00 0.00 0.00 79 1020.1
20260902095952 68 224 4.0 9.0 0.00 0.00 0.00 78 1020.1
20260902095450 68 228 3.0 10.0 0.00 0.00 0.00 79 1020.1
20260902094949 68 234 3.0 8.0 0.00 0.00 0.00 79 1020.1
20260902094825 67 281 3.0 8.0 0.00 0.00 0.00 79 1020.2
20260902094343 67 214 3.0 9.0 0.00 0.00 0.00 80 1020.2
20260902093449 67 161 3.0 9.0 0.00 0.00 0.00 81 1020.2
20260902092948 66 219 3.0 7.0 0.00 0.00 0.00 82 1020.2
20260902092445 66 243 4.0 8.0 0.00 0.00 0.00 82 1020.2
20260902091947 66 192 4.0 8.0 0.00 0.00 0.00 82 1020.3
20260902091446 65 190 5.0 9.0 0.00 0.00 0.00 83 1020.1
20260902090944 65 182 4.0 9.0 0.00 0.00 0.00 83 1020.1